Location: Jetmore
(38.0845°N, 99.8935°W)
Time: 21:37:38
(UTC+00:00)

Cosmos 2098 Rocket - Pass Details

Date: 29 October 2020
Orbit: 366 x 1184 km, 82.9° (Epoch: 30 November)

Event Time Altitude Azimuth Distance (km) Brightness Sun altitude
Rises 12:17:31 0° 191° (SSW) 3,771 7.1 -9.5°
Reaches altitude 10° 12:20:20 10° 194° (SSW) 2,713 6.3 -9.0°
Maximum altitude 12:26:29 68° 277° (W) 892 3.6 -7.8°
Drops below altitude 10° 12:31:24 10° 0° (N) 2,177 5.7 -6.8°
Sets 12:33:27 0° 4° (N) 2,979 6.5 -6.4°
